Epoch 2001 Oct. 18.0 TT = JDT 2452200.5 T 2001 Oct. 14.76935 TT MPC q 2.5238708 (2000.0) P Q n 0.13424886 Peri. 255.92716 -0.01012914 -0.99990215 a 3.7774232 Node 194.66343 +0.93151319 -0.00592746 e 0.3318538 Incl. 2.18423 +0.36356648 -0.01267070 P 7.34
m1 = 14.0 + 5 logΔ + 10.0 log r